Flag for Bahrain Weather past 2 weeks in Manama, Bahrain

Now
99 °F

Sunny.


Feels Like: 121 °F
Forecast: 86 / 104 °F
Wind: 15 mph from Northwest

Location: Bahrain International Airport

Current Time: Aug 29, 2015 at 9:36:17 AM

Latest Report: Aug 29, 2015 at 9:00 AM


Visibility: 10 mi

Pressure: 29.59 "Hg

Humidity: 57%

Dew point: 81 °F

Historic Weather in Manama — Graph

°F

Manama temperature yesterday

Maximum temperature yesterday: 108 °F (at 12:00 PM)
Minimum temperature yesterday: 97 °F (at 12:00 AM)
Average temperature yesterday: 100 °F

Past Weeks' High & Low Weather Summary

 TemperatureHumidityPressure
High111 °F (Aug 19, 3:00 PM)84% (Aug 16, 2:00 AM)29.62 "Hg (Aug 16, 2:00 AM)
Low90 °F (Aug 27, 3:30 AM)12% (Aug 19, 3:00 PM)29.47 "Hg (Aug 24, 2:00 AM)
Average98 °F59%29.55 "Hg
* Reported Aug 14 8:00 AM — Aug 29 8:00 AM, Manama, Weather by CustomWeather, © 2015

Note: Actual official high and low records may vary slightly from our data, if they occured in-between our weather recording intervals... More about our weather records

Advertising

Manama weather history for previous 24 hours

 ConditionsComfort  
Time TempWeatherWind HumidityBarometerVisibility
8:00 AM
Sat, Aug 29
99 °FSunny.16 mph57%29.59 "Hg10 mi
7:00 AM97 °FSunny.14 mph60%29.59 "Hg10 mi
6:00 AM95 °FSunny.8 mph56%29.56 "Hg10 mi
5:00 AM95 °FClear.9 mph60%29.56 "Hg4 mi
4:00 AM97 °FClear.10 mph56%29.56 "Hg4 mi
3:00 AM97 °FClear.9 mph56%29.53 "Hg3 mi
2:00 AM99 °FClear.15 mph50%29.53 "Hg3 mi
1:00 AM99 °FClear.9 mph53%29.56 "Hg3 mi
12:00 AM99 °FClear.10 mph50%29.56 "Hg3 mi
11:00 PM
Fri, Aug 28
99 °FClear.8 mph53%29.59 "Hg3 mi
10:00 PM99 °FClear.6 mph50%29.59 "Hg6 mi
9:00 PM97 °FClear.9 mph60%29.59 "Hg10 mi
8:00 PM97 °FClear.8 mph60%29.59 "Hg10 mi
7:00 PM99 °FClear.7 mph53%29.56 "Hg10 mi
6:00 PM99 °FPassing clouds.8 mph50%29.56 "HgN/A
5:00 PM100 °FSunny.9 mph50%29.56 "Hg10 mi
4:00 PM102 °FPassing clouds.12 mph48%29.56 "HgN/A
3:00 PM102 °FSunny.14 mph48%29.56 "Hg10 mi
2:00 PM104 °FSunny.16 mph43%29.56 "Hg10 mi
1:00 PM108 °FSunny.16 mph36%29.56 "Hg10 mi
12:00 PM108 °FSunny.18 mph36%29.56 "Hg10 mi
11:00 AM104 °FSunny.16 mph45%29.56 "Hg10 mi
10:00 AM102 °FSunny.17 mph45%29.59 "Hg10 mi
9:00 AM100 °FSunny.15 mph45%29.59 "Hg10 mi
Weather by CustomWeather, © 2015

See weather overviewHow to use our weather pages